Temp
72 66 62 68 68 71 71 70 69 75 81 77 73 74 76 80 80 78 77 79 80 78 82 84 85 84 83 82 80 80 78 76 76 72 73 71 71 71 72 73 75 75 75 74
68 62 75 75 77 74 71 69 68 75 81 74 71 73 76 78 80 78 78 79 80 79 79 81 83 83 82 80 80 79 78 75 77 78 76 72 72 72 75 74 73 75 76 74
64 73 81 78 74 72 65 63 69 70 75 74 71 67 68 77 81 80 82 83 83 81 79 81 81 82 81 79 79 79 78 78 78 74 73 71 72 72 72 72 74 74 75 75
68 79 78 75 72 69 54 75 78 76 66 59 69 54 64 72 75 79 79 80 82 82 83 83 81 80 81 80 81 80 79 77 76 72 74 72 70 69 71 72 73 72 76 76
70 75 74 71 75 75 71 78 74 72 64 58 62 57 63 67 69 74 77 80 82 84 83 83 81 81 82 83 80 79 78 77 77 75 74 74 70 72 71 72 74 72 74 76
73 81 76 77 79 79 82 73 67 62 56 52 55 59 59 63 71 74 79 82 83 84 84 85 85 83 82 83 81 78 76 76 76 76 73 73 74 71 71 70 70 74 72 74
70 75 76 79 69 75 72 60 51 50 49 52 54 59 61 73 78 77 74 78 81 84 84 83 81 81 80 80 79 79 76 75 76 76 75 74 74 72 71 71 71 70 72 72
59 60 74 80 75 69 65 61 52 46 47 53 61 56 64 74 77 78 79 78 78 77 73 76 81 81 78 81 80 80 76 76 77 76 76 75 74 75 74 73 72 74 75 76
59 65 79 80 79 77 66 60 66 57 50 54 58 62 70 74 73 74 74 75 74 74 69 69 77 76 74 81 80 80 78 77 77 78 77 76 75 75 75 73 74 74 73 76
64 61 69 80 80 77 66 72 61 54 47 45 54 55 58 63 66 71 71 71 69 71 76 74 74 75 79 80 82 79 78 76 78 79 78 78 77 77 76 75 74 74 75 74
62 63 65 71 67 64 66 63 60 59 54 48 47 52 63 64 67 69 69 70 69 74 76 75 73 75 73 78 82 78 76 77 76 76 77 78 78 78 76 76 76 76 76 75
63 58 54 64 71 74 71 61 57 53 54 51 50 53 69 66 66 69 67 70 69 71 73 75 73 71 72 71 70 68 67 69 71 72 75 76 75 78 76 77 77 77 76 75
64 55 50 57 61 68 64 64 60 57 52 50 48 52 67 66 64 66 65 66 68 70 70 71 71 69 69 71 70 68 67 66 69 69 70 74 76 76 78 78 79 77 74 76
67 53 52 49 55 59 61 66 64 56 50 49 51 53 59 63 63 64 64 66 67 68 68 68 67 68 69 70 70 70 69 70 71 72 70 72 76 76 76 77 77 79 77 75
63 53 52 54 62 62 62 65 66 56 58 54 55 56 59 62 64 64 66 68 70 69 69 69 67 66 67 69 70 70 71 71 71 71 72 70 76 75 76 75 76 76 78 77
61 54 52 56 64 63 61 66 66 64 63 59 61 58 63 64 66 67 67 68 68 68 70 70 70 68 68 69 69 71 70 70 71 71 72 72 73 74 75 76 76 75 75 76
58 55 50 46 58 59 53 60 63 61 62 60 54 59 64 63 66 65 65 67 67 68 68 69 69 69 68 67 69 68 69 69 70 70 71 71 71 69 69 73 75 74 75 74
57 52 49 47 49 42 56 65 68 64 64 64 63 64 65 63 65 65 67 66 67 69 70 69 68 68 69 70 69 68 69 68 67 68 69 70 69 68 67 67 68 70 72 72
61 52 48 47 43 52 59 63 61 56 56 64 61 64 65 67 65 61 67 67 65 65 66 67 67 67 67 67 68 67 67 67 67 67 67 69 70 69 67 66 65 66 67 68
57 56 54 45 44 43 52 66 68 63 48 64 63 61 61 61 50 55 63 65 66 67 67 67 69 68 66 67 67 65 65 64 65 67 66 68 68 69 68 67 64 64 65 67
51 50 49 46 45 49 61 66 67 48 49 60 63 61 59 56 57 61 64 65 64 65 67 67 66 65 65 66 66 64 64 64 67 67 67 66 67 67 68 66 62 61 62 64
51 48 47 46 43 43 64 63 53 56 57 61 61 60 60 60 62 64 65 64 66 65 66 67 64 64 66 65 63 63 62 66 66 66 66 67 65 66 68 65 64 62 61 61
50 52 50 51 50 58 60 59 60 61 60 58 58 61 61 62 62 63 62 62 63 64 64 66 67 66 64 64 63 61 65 64 64 63 68 69 66 67 65 64 64 62 61 60
55 57 53 54 57 58 61 61 63 62 60 63 63 63 63 61 61 60 61 61 61 63 63 64 62 61 61 62 63 62 65 66 63 63 64 66 67 67 66 64 64 65 65 66
56 56 53 51 55 59 61 61 62 63 64 64 65 64 63 62 62 60 60 60 61 62 63 63 60 60 62 64 62 64 65 63 62 63 64 65 66 65 64 61 62 62 65 65
55 55 50 47 56 55 57 62 65 63 62 63 61 62 64 62 61 60 61 64 63 60 61 59 59 59 61 61 62 64 64 61 61 62 64 64 65 66 60 60 60 54 54 53
MSLP
1006.56 1007.42 1007.60 1006.89 1007.15 1006.75 1006.38 1005.18 1004.74 1003.80 1003.70 1004.01 1004.22 1004.30 1004.90 1004.93 1005.52 1006.06 1006.45 1006.78 1007.07 1007.37 1007.72 1008.34 1008.82 1009.59 1010.35 1011.06 1011.77 1012.24 1012.93 1013.45 1014.22 1014.99 1015.56 1015.76 1015.86 1015.84 1016.09 1016.27 1016.46 1016.52 1016.87 1017.18
1007.24 1007.22 1006.21 1006.30 1006.31 1006.06 1005.33 1004.94 1004.57 1004.00 1003.73 1004.23 1004.50 1004.57 1004.20 1004.66 1004.76 1005.08 1005.54 1006.17 1006.50 1007.08 1007.61 1008.22 1008.68 1009.27 1009.92 1010.52 1011.35 1012.05 1012.51 1013.27 1013.79 1014.45 1014.95 1015.19 1015.35 1015.40 1015.44 1015.74 1016.15 1016.16 1016.49 1016.65
1007.21 1005.81 1005.32 1005.58 1005.48 1004.91 1004.89 1004.97 1004.74 1004.63 1004.40 1004.46 1004.65 1004.86 1004.47 1003.91 1003.94 1004.65 1004.83 1005.09 1005.84 1006.24 1006.94 1007.64 1008.16 1008.70 1009.54 1010.31 1010.88 1011.55 1012.21 1012.87 1013.48 1014.14 1014.82 1015.28 1015.52 1015.66 1015.72 1015.98 1016.04 1015.96 1016.14 1016.37
1006.27 1004.80 1005.00 1004.65 1004.32 1004.40 1004.72 1004.43 1004.66 1004.98 1005.44 1005.70 1005.51 1006.10 1004.91 1003.94 1003.90 1004.01 1004.51 1005.21 1005.46 1006.03 1006.66 1007.22 1007.77 1008.51 1009.01 1009.59 1010.46 1011.11 1011.89 1012.69 1013.32 1013.90 1014.55 1014.96 1015.17 1015.65 1015.63 1015.62 1015.77 1015.91 1015.97 1016.13
1005.43 1004.84 1004.09 1003.93 1003.76 1003.86 1004.32 1004.24 1004.95 1005.31 1005.90 1006.45 1006.47 1006.56 1005.14 1004.62 1004.19 1003.99 1004.17 1004.52 1004.86 1005.17 1005.81 1006.63 1007.26 1007.80 1008.66 1009.44 1010.25 1011.03 1011.79 1012.47 1012.96 1013.51 1013.97 1014.42 1014.83 1015.18 1015.27 1015.60 1015.77 1016.04 1015.88 1016.00
1005.19 1004.18 1003.71 1003.21 1003.06 1003.40 1003.78 1004.42 1005.77 1006.61 1007.42 1008.00 1007.43 1006.97 1006.12 1005.28 1004.33 1003.78 1003.47 1003.51 1004.19 1004.99 1005.77 1006.38 1006.96 1008.04 1008.61 1009.25 1009.94 1010.57 1011.27 1011.92 1012.39 1012.96 1013.67 1014.12 1014.45 1014.80 1015.24 1015.48 1015.68 1015.76 1015.77 1015.99
1004.92 1003.91 1003.20 1002.96 1003.26 1003.44 1004.08 1006.08 1007.50 1008.64 1009.08 1008.68 1007.38 1007.12 1006.34 1005.23 1004.63 1005.17 1004.84 1004.92 1005.58 1005.29 1005.84 1006.91 1007.75 1008.37 1008.74 1008.95 1009.59 1010.42 1011.06 1011.52 1011.84 1012.24 1012.91 1013.53 1014.00 1014.34 1014.70 1014.90 1015.06 1015.37 1015.51 1015.65
1005.97 1004.24 1003.33 1002.87 1003.10 1003.71 1004.60 1006.22 1007.86 1008.77 1009.86 1008.88 1007.67 1007.45 1007.85 1007.12 1006.01 1005.98 1005.68 1005.92 1007.14 1008.22 1009.01 1009.96 1008.68 1008.21 1008.27 1008.92 1009.04 1009.55 1010.54 1011.24 1011.68 1011.91 1012.18 1012.75 1013.22 1013.73 1014.13 1014.38 1014.44 1014.55 1014.74 1014.88
1005.49 1004.57 1003.28 1002.80 1002.85 1003.67 1004.57 1005.67 1006.35 1007.98 1009.22 1009.22 1008.81 1008.03 1007.51 1007.61 1007.17 1007.00 1006.93 1006.52 1007.53 1009.17 1010.74 1010.51 1010.82 1009.60 1009.13 1008.90 1009.27 1009.28 1009.95 1010.60 1011.00 1011.09 1011.56 1011.81 1012.47 1012.81 1013.22 1013.71 1013.98 1014.05 1014.16 1014.42
1005.57 1005.45 1004.85 1003.70 1003.20 1003.77 1004.40 1004.90 1006.49 1008.17 1009.56 1010.29 1009.75 1009.10 1008.78 1008.92 1008.69 1008.34 1008.19 1007.94 1008.89 1010.19 1011.29 1013.03 1011.63 1009.86 1009.09 1008.97 1009.27 1009.87 1010.42 1010.92 1010.73 1010.65 1010.52 1010.95 1011.21 1011.99 1012.38 1012.83 1013.42 1013.56 1013.57 1013.80
1005.92 1006.55 1006.27 1005.22 1005.44 1005.45 1005.22 1005.82 1006.78 1008.05 1009.11 1010.26 1010.79 1010.32 1009.44 1009.86 1009.41 1009.16 1009.25 1009.42 1010.03 1010.31 1011.54 1012.15 1010.74 1010.18 1009.48 1008.43 1008.25 1009.19 1009.02 1009.99 1011.13 1010.93 1011.01 1011.50 1010.98 1011.22 1011.81 1012.04 1012.37 1012.81 1013.06 1013.16
1006.80 1007.71 1008.10 1007.22 1006.48 1005.93 1006.39 1007.15 1007.81 1009.04 1009.82 1010.17 1010.41 1010.41 1009.84 1010.84 1010.47 1010.06 1010.57 1010.93 1011.08 1010.96 1011.57 1011.51 1011.64 1010.82 1010.43 1010.04 1009.96 1009.21 1010.39 1011.87 1011.27 1010.78 1010.03 1011.44 1011.56 1011.30 1011.37 1011.63 1011.63 1012.02 1012.33 1012.56
1007.30 1008.66 1009.32 1008.08 1007.65 1006.68 1007.26 1007.67 1008.04 1008.89 1009.68 1010.76 1011.13 1011.27 1010.61 1011.28 1011.22 1011.15 1011.23 1011.41 1011.15 1011.30 1011.67 1011.79 1011.62 1011.26 1011.07 1010.97 1011.15 1011.69 1012.02 1011.62 1012.18 1010.67 1010.60 1010.94 1011.31 1011.01 1010.87 1010.94 1010.95 1011.29 1011.64 1011.87
1007.62 1009.50 1010.26 1010.24 1009.82 1009.10 1008.47 1007.99 1008.26 1009.23 1009.96 1010.81 1011.19 1011.90 1011.89 1011.92 1011.88 1012.15 1011.96 1011.59 1011.38 1011.64 1012.10 1012.25 1012.17 1011.72 1011.65 1011.27 1011.44 1012.57 1012.39 1012.31 1011.79 1009.78 1009.60 1010.58 1010.41 1010.10 1009.98 1009.84 1010.03 1010.32 1010.76 1011.13
1008.50 1010.31 1010.50 1010.45 1009.97 1009.28 1008.86 1008.40 1008.42 1008.92 1009.06 1010.11 1011.23 1011.50 1011.75 1011.87 1011.99 1012.01 1012.04 1011.97 1011.71 1011.67 1011.68 1011.80 1012.06 1012.47 1012.08 1011.67 1011.64 1011.73 1012.22 1011.99 1011.74 1011.48 1010.80 1009.83 1009.73 1009.27 1008.95 1009.39 1009.41 1009.38 1009.81 1009.82
1009.03 1010.40 1010.81 1010.94 1010.06 1009.73 1009.27 1008.74 1008.39 1008.89 1009.55 1010.66 1011.11 1011.87 1011.92 1012.00 1011.86 1011.97 1011.88 1011.87 1011.93 1011.90 1011.87 1011.85 1012.01 1012.25 1012.26 1011.96 1011.56 1011.39 1011.53 1011.70 1011.53 1011.13 1010.54 1009.79 1008.37 1009.06 1008.67 1008.25 1008.52 1008.62 1008.34 1008.66
1009.71 1010.76 1011.98 1012.11 1011.13 1010.47 1010.13 1009.74 1009.37 1009.60 1009.74 1010.50 1011.46 1011.88 1012.07 1012.24 1012.09 1012.09 1012.25 1012.19 1012.16 1012.02 1011.90 1011.87 1011.94 1011.90 1011.82 1011.83 1011.62 1011.52 1011.19 1010.93 1010.97 1010.80 1010.23 1009.69 1009.37 1009.20 1009.06 1008.65 1007.80 1007.78 1007.37 1007.59
1010.12 1011.41 1012.24 1012.95 1012.19 1011.71 1011.26 1010.56 1010.08 1010.52 1011.26 1011.42 1011.83 1012.23 1012.32 1012.29 1012.28 1012.73 1012.77 1012.68 1012.53 1012.18 1012.01 1011.98 1011.93 1011.82 1011.66 1011.32 1011.09 1010.89 1010.64 1010.27 1009.95 1009.91 1010.17 1009.93 1009.56 1009.34 1008.96 1008.70 1008.81 1008.40 1007.07 1007.71
1009.49 1011.29 1013.00 1013.43 1013.33 1012.20 1011.36 1010.86 1011.02 1011.19 1012.61 1012.60 1012.74 1012.86 1012.87 1012.71 1012.80 1013.09 1013.19 1013.06 1012.95 1012.77 1012.54 1012.35 1012.14 1011.85 1011.51 1011.32 1011.11 1011.07 1010.86 1010.50 1010.46 1009.88 1009.45 1009.26 1009.00 1008.78 1008.52 1008.54 1008.62 1008.51 1008.38 1007.46
1010.13 1010.80 1012.38 1013.73 1013.69 1012.89 1012.01 1011.24 1010.88 1011.26 1012.75 1013.11 1013.04 1013.45 1013.59 1013.57 1014.21 1014.27 1013.37 1013.12 1012.92 1012.74 1012.49 1012.19 1011.81 1011.48 1011.25 1010.92 1010.68 1010.62 1010.66 1010.68 1010.44 1009.96 1009.52 1008.81 1008.49 1008.43 1008.24 1008.10 1008.35 1008.29 1008.05 1008.11
1011.24 1012.31 1013.09 1013.65 1013.42 1012.78 1011.78 1011.33 1011.13 1012.22 1013.49 1013.15 1013.06 1013.25 1013.34 1013.72 1013.84 1013.52 1013.17 1012.71 1012.50 1012.35 1012.13 1011.78 1011.54 1011.44 1011.11 1010.70 1010.52 1010.52 1010.29 1010.00 1009.41 1009.22 1009.01 1008.71 1008.32 1008.01 1007.76 1007.77 1008.00 1008.14 1008.25 1008.17
1012.00 1012.99 1013.61 1013.85 1013.45 1012.82 1011.77 1011.72 1012.19 1012.88 1013.00 1013.03 1013.04 1013.16 1013.28 1013.37 1013.33 1013.22 1013.06 1012.82 1012.39 1012.06 1011.65 1011.41 1011.16 1010.93 1010.48 1010.33 1010.28 1010.12 1009.82 1009.34 1009.11 1008.67 1008.36 1008.13 1007.88 1007.68 1007.45 1007.50 1007.53 1007.64 1007.72 1008.07
1012.76 1012.78 1013.04 1013.67 1013.39 1012.59 1012.23 1012.26 1012.56 1012.68 1012.83 1012.91 1012.94 1012.91 1012.94 1013.10 1013.03 1012.81 1012.68 1012.42 1012.00 1011.52 1011.13 1010.76 1010.61 1010.35 1010.00 1009.71 1009.56 1009.48 1009.03 1008.73 1008.50 1008.24 1007.86 1007.50 1007.19 1007.07 1006.93 1006.98 1006.98 1007.10 1007.01 1007.24
1012.60 1012.36 1013.15 1013.39 1013.66 1013.30 1013.07 1013.01 1012.85 1012.79 1012.79 1012.63 1012.55 1012.53 1012.51 1012.62 1012.48 1012.38 1012.13 1011.89 1011.56 1011.01 1010.58 1010.23 1009.97 1009.72 1009.45 1009.12 1008.84 1008.55 1008.28 1007.92 1007.78 1007.60 1007.34 1006.90 1006.48 1006.28 1006.21 1006.15 1006.12 1006.07 1006.11 1006.05
1012.87 1012.75 1013.37 1014.14 1013.77 1013.44 1013.18 1013.06 1012.92 1012.83 1012.69 1012.55 1012.42 1012.34 1012.24 1012.15 1012.05 1011.92 1011.67 1011.32 1010.84 1010.33 1009.90 1009.66 1009.39 1009.15 1008.77 1008.39 1008.06 1007.70 1007.38 1007.13 1007.00 1006.78 1006.54 1006.20 1005.84 1005.50 1005.33 1005.20 1005.20 1005.09 1004.93 1004.86
1012.93 1013.05 1013.50 1014.11 1013.81 1013.69 1013.40 1012.92 1012.66 1012.68 1012.56 1012.32 1012.25 1012.12 1011.94 1011.96 1011.89 1011.61 1011.38 1010.79 1010.35 1009.96 1009.50 1009.19 1008.91 1008.56 1008.05 1007.69 1007.37 1006.95 1006.57 1006.43 1006.24 1006.02 1005.64 1005.31 1004.98 1004.61 1004.47 1004.44 1004.41 1004.32 1004.30 1003.98
Wind_Speed
3 3 8 14 8 8 7 2 2 3 7 6 7 6 8 12 8 11 11 15 14 16 17 17 16 15 15 15 14 16 14 10 9 5 7 4 4 4 4 4 6 7 6 8
6 7 15 6 8 8 1 2 5 5 4 3 3 7 9 12 15 12 16 16 16 10 14 16 15 15 16 18 17 15 13 11 11 8 6 3 4 3 3 4 6 6 6 7
7 14 6 8 8 2 2 1 6 6 3 3 1 9 7 6 10 8 17 19 16 18 17 16 17 18 17 17 17 16 15 15 12 8 4 3 3 3 1 2 3 5 7 7
8 12 9 8 1 4 2 4 8 5 4 2 4 6 8 4 7 13 12 15 16 16 14 14 16 17 18 17 15 15 14 13 10 9 7 6 5 4 4 4 3 4 8 8
11 8 6 3 6 5 9 6 3 2 2 2 2 4 9 3 3 5 9 15 17 18 18 17 17 19 17 16 15 13 13 12 10 11 9 8 5 4 3 3 6 6 5 8
10 6 3 8 3 4 5 4 9 6 4 4 0 6 7 3 5 4 4 14 20 18 17 18 14 13 14 14 14 14 15 13 11 12 9 10 10 6 4 4 5 6 4 5
7 8 4 2 1 6 4 8 5 5 6 6 1 5 7 5 3 17 22 23 8 10 17 13 11 10 12 15 14 13 14 14 13 14 12 11 10 8 8 7 6 6 4 4
2 9 7 4 7 8 3 9 7 2 3 6 4 4 8 14 15 14 20 22 27 24 17 14 2 6 10 14 15 17 15 14 14 14 13 10 10 7 7 8 5 6 7 6
3 8 6 3 4 8 3 0 7 5 1 3 2 4 2 12 14 12 15 16 24 21 23 26 26 6 7 9 14 17 16 14 15 16 12 12 11 11 10 9 7 6 5 6
3 3 3 6 4 5 1 4 4 4 1 3 4 1 3 5 6 8 11 12 17 14 19 13 11 10 9 4 6 5 4 7 11 12 13 12 13 13 11 9 9 9 8 7
4 4 7 6 5 5 9 8 5 5 5 7 3 5 3 6 7 10 7 4 11 10 9 6 11 14 11 6 11 6 11 9 6 6 6 9 11 12 11 11 11 10 9 8
2 5 0 7 5 2 6 3 4 6 5 1 5 5 3 4 4 9 9 7 8 9 5 9 8 9 11 9 8 8 10 7 4 6 6 6 9 10 11 12 12 11 12 10
2 3 4 12 9 8 7 4 3 3 3 3 6 4 3 6 8 7 9 4 5 7 7 6 6 7 7 6 4 4 4 7 7 8 9 11 16 11 14 14 13 12 12 12
8 4 6 6 6 4 7 7 4 6 3 2 2 5 5 6 8 3 4 5 5 5 6 5 5 7 6 6 6 6 3 6 6 7 12 15 16 13 14 15 14 14 12 12
6 4 2 2 5 2 3 7 8 3 6 5 8 9 4 5 7 5 5 3 5 6 7 8 7 4 2 4 5 3 4 2 3 8 14 18 17 13 13 12 13 13 13 14
3 1 3 9 7 8 5 8 6 4 7 10 13 9 4 3 6 5 5 6 6 6 6 7 5 2 2 2 2 4 2 3 4 6 6 6 7 8 11 12 12 14 16 16
3 5 4 4 5 6 6 8 7 6 7 8 5 6 5 5 6 5 6 6 5 3 3 5 5 5 4 2 3 3 6 4 2 2 7 7 6 6 6 10 12 14 15 12
5 5 3 4 4 2 5 3 16 16 11 9 9 6 5 3 3 10 5 5 6 5 6 7 6 7 7 5 5 4 4 7 7 6 2 3 3 4 6 6 5 8 6 5
4 6 3 4 3 4 5 7 4 3 3 3 6 7 6 5 7 4 8 6 5 6 5 4 5 5 5 6 7 6 6 6 5 8 8 5 3 5 6 5 6 4 3 0
7 7 6 3 3 4 3 6 5 4 1 4 9 6 7 5 3 5 6 4 5 5 5 7 8 4 5 6 5 6 7 6 7 7 9 8 5 4 6 6 4 2 2 5
4 4 6 2 3 1 4 3 2 2 6 2 5 4 3 2 6 6 6 5 4 5 7 7 6 6 7 7 6 6 7 7 7 6 7 7 7 7 6 4 3 4 5 5
4 5 3 2 2 3 2 4 0 6 1 4 2 2 1 3 4 6 7 8 8 9 9 9 7 8 8 7 5 7 7 9 7 7 7 8 7 6 5 6 4 6 5 6
3 6 5 6 6 4 3 4 3 3 3 1 2 3 3 5 7 7 7 8 9 9 8 9 10 10 8 7 6 7 11 7 8 8 12 12 7 7 6 5 6 4 6 6
5 1 4 4 6 5 7 4 4 2 1 4 4 5 5 6 7 8 8 8 8 9 9 9 8 8 8 8 8 8 11 11 8 11 12 10 11 10 8 5 5 5 5 6
5 4 2 3 4 2 4 3 1 3 3 4 6 6 7 7 9 8 7 8 9 10 9 9 7 7 10 10 9 10 11 9 9 10 11 11 10 9 7 6 5 5 6 7
0 4 4 5 5 5 5 6 6 7 6 7 4 7 7 4 8 7 10 10 9 8 8 6 8 8 12 9 10 12 10 7 10 11 10 9 9 8 5 6 5 10 11 10
Wind_Direction
287 83 232 237 197 234 256 30 301 238 200 164 217 238 206 201 201 172 183 178 184 180 189 187 182 174 171 177 175 181 177 177 165 156 174 173 183 177 192 183 202 185 173 173
360 243 249 236 259 230 320 314 294 296 218 125 186 262 242 195 209 182 183 184 186 171 170 187 184 175 175 177 181 179 180 171 177 179 183 150 163 191 186 171 185 185 179 183
200 249 255 238 260 73 314 262 281 231 345 327 157 324 335 219 197 176 195 187 183 181 172 182 185 185 176 177 180 182 181 182 182 170 122 84 62 50 104 163 197 189 181 184
222 260 221 233 235 114 316 205 271 235 64 258 90 280 316 246 194 197 180 187 187 184 182 173 170 177 178 183 181 181 179 181 177 155 166 163 177 163 208 187 188 173 185 174
259 299 285 151 205 131 240 254 68 74 107 52 89 89 265 8 249 227 199 191 190 186 178 183 177 178 179 176 175 177 179 180 175 177 173 176 180 183 188 177 188 188 200 181
244 248 220 211 245 194 253 30 38 36 49 20 2 121 297 204 217 268 220 192 187 182 185 190 179 165 178 178 175 173 173 181 176 182 176 181 190 178 181 188 192 202 202 188
329 272 252 174 86 342 83 52 351 3 3 233 314 64 249 283 322 71 70 58 46 188 178 175 173 169 179 180 179 175 177 186 183 183 184 183 188 189 191 196 193 189 194 184
242 334 159 214 183 184 202 145 157 280 208 264 346 39 1 74 85 69 73 77 60 38 35 3 289 182 177 192 182 179 182 185 190 190 192 190 181 193 204 202 207 202 202 206
46 334 360 157 177 129 258 279 195 133 321 60 324 341 141 38 47 50 62 68 83 60 50 9 317 295 296 202 200 189 183 185 191 196 196 193 187 191 197 200 209 214 201 198
309 30 344 308 14 1 115 199 36 11 92 52 303 321 247 24 35 46 53 76 84 100 110 189 322 325 309 50 164 189 198 209 205 202 196 197 195 196 194 186 202 211 213 204
69 73 299 28 29 328 354 359 25 108 135 150 183 262 226 202 148 92 86 76 100 88 100 98 55 22 13 46 176 159 163 170 180 190 204 237 205 198 195 197 203 205 211 205
7 123 335 243 270 190 108 26 80 109 287 28 136 271 234 57 75 108 63 61 48 67 92 76 57 70 35 16 26 347 6 321 250 217 140 250 236 210 200 208 206 203 206 210
1 25 22 342 359 3 51 359 41 129 78 348 120 250 15 92 76 79 112 125 98 82 59 66 58 59 45 53 16 320 342 319 321 332 339 298 257 221 217 215 213 204 204 208
83 98 143 172 220 236 325 345 9 109 95 208 201 126 64 97 107 109 94 90 75 68 96 93 76 66 34 35 23 63 173 265 291 319 284 264 257 230 220 214 212 212 207 204
104 83 44 198 239 354 290 332 321 286 218 152 178 124 147 135 146 162 174 176 80 31 31 44 60 81 87 29 23 43 128 227 237 244 273 269 248 237 219 222 214 209 210 211
14 210 66 348 346 9 324 319 305 51 72 76 114 103 164 132 79 82 124 101 84 56 30 13 21 93 120 168 60 347 343 194 236 304 307 310 336 266 241 228 213 210 206 207
97 115 74 290 334 350 22 326 62 55 32 134 130 152 143 82 86 99 124 99 101 93 35 354 335 326 316 214 222 305 294 298 317 333 323 321 341 322 326 285 232 226 221 208
131 103 106 222 27 16 226 11 86 81 51 49 78 83 78 123 113 84 55 73 31 9 350 331 322 316 302 297 309 308 331 326 326 318 314 327 293 276 283 295 312 355 271 219
159 117 98 130 170 276 358 1 21 89 24 45 81 48 28 41 87 71 36 26 9 353 324 287 288 285 305 316 306 313 309 310 308 300 300 295 300 314 314 318 306 275 249 229
74 85 116 111 144 230 227 305 347 104 58 2 97 88 86 55 64 282 320 340 341 330 312 307 302 297 320 315 330 334 308 312 294 284 274 280 277 264 290 299 317 253 262 241
43 31 143 158 195 279 224 303 12 95 220 147 100 112 66 83 194 231 282 306 256 250 272 285 286 268 265 283 297 294 289 283 268 281 289 275 263 263 258 265 201 221 235 247
137 130 213 82 124 240 302 28 110 204 142 116 68 78 273 238 270 272 284 276 283 286 288 284 282 275 269 267 255 276 277 266 273 283 283 278 269 248 240 240 242 232 227 207
52 176 175 154 211 231 359 105 60 130 138 180 231 252 216 253 251 264 256 261 257 258 262 266 273 273 265 264 258 264 268 262 263 272 281 274 265 268 254 233 242 227 216 215
320 127 107 76 11 105 88 89 91 75 348 302 286 269 268 262 266 256 258 261 257 261 262 263 263 262 266 259 253 246 259 264 257 271 269 274 278 269 256 227 229 229 232 234
209 36 72 56 342 183 65 62 298 328 312 288 280 264 266 262 271 263 265 269 266 264 262 262 256 263 271 272 261 261 259 249 258 267 265 267 264 264 255 236 218 225 245 234
40 179 123 198 231 162 254 307 336 348 320 305 308 312 305 294 282 282 289 297 292 278 277 272 263 260 267 267 271 276 265 241 254 267 263 254 260 259 238 254 261 218 236 266